[[{"header":{"parameterUnit":"m.s-1","parameterCategory":1,"la1":30.2991,"la2":30.254,"lo1":-89.0895,"lo2":-89.0444,"dy":0.0017,"dx":0.0017,"nx":28,"ny":28,"refTime":"2025-08-21T21:00:00:Z","depth":0,"parameterNumber":2,"parameterNumberName":"U-component_of_WINDS"},"data":[0,0,0,0,0,0,0,0,0,0,0,0,0,0,0,0,0,0,0,0,0,0,0,0,0,0,0,0,0,0,0,0,0,0,0,0,0,0,0,0,0,0,0,0,0,0,0,0,0,0,0,0,0,0,0,0,0,0,1.3877,1.3877,0,1.3905,1.3905,1.3905,1.391,1.391,1.3909,1.3909,1.3938,1.3939,1.394,0,0,0,0,0,0,0,0,0,0,0,0,0,1.3828,1.3829,1.3877,1.3877,1.3877,1.3905,1.3905,1.3905,1.391,1.391,1.3909,1.3909,1.3938,1.3939,1.394,0,0,0,0,0,0,0,0,0,0,0,0,0,1.3852,1.3829,1.3877,1.3883,1.3884,1.3905,1.3905,1.3906,1.391,1.391,1.3909,1.3909,1.3938,1.3939,1.3941,1.3957,0,0,1.3945,1.3946,0,0,0,0,0,0,0,0,1.385,1.3853,1.3882,1.3882,1.3883,1.3903,1.3899,1.3923,1.391,1.39,1.3909,1.3909,1.3927,1.3929,1.3936,1.3959,1.396,1.3945,1.3946,1.3947,1.3947,0,0,0,0,0,0,0,1.3849,1.3852,1.3888,1.3882,1.3883,1.3885,1.3887,1.3903,1.3915,1.3901,1.3901,1.3904,1.3928,1.3934,1.3936,1.3961,1.3945,1.3947,1.3948,1.3948,1.4,1.4,0,0,0,0,0,0,1.3846,1.3851,1.3887,1.3889,1.3866,1.3886,1.3889,1.3897,1.3915,1.3917,1.3905,1.3905,1.3932,1.3934,1.3937,1.3959,1.3947,1.3948,1.3949,1.3999,1.4,1.4,0,0,0,0,0,0,1.3845,1.3849,1.3886,1.387,1.3875,1.3887,1.3896,1.3898,1.3905,1.3918,1.392,1.3909,1.3931,1.3935,1.3953,1.396,1.3949,1.395,1.3999,1.3999,1.4,1.4001,0,0,0,0,0,0,1.3843,1.3849,1.3855,1.387,1.3875,1.39,1.3897,1.3899,1.3907,1.3907,1.3923,1.3925,1.3931,1.395,1.3954,1.3962,1.3952,1.3998,1.3999,1.4,1.4001,1.4002,1.4003,0,0,0,0,0,1.3841,1.3854,1.3855,1.3859,1.3884,1.3901,1.3904,1.3911,1.3908,1.3914,1.3923,1.3925,1.3958,1.3952,1.3956,1.3964,1.3998,1.3999,1.4,1.4,1.4002,1.4003,0,0,0,0,0,0,1.384,1.3856,1.3858,1.3875,1.3887,1.3901,1.391,1.3912,1.3925,1.3924,1.3932,1.3936,1.3953,1.396,1.3953,1.3982,1.3978,1.398,1.3976,1.3978,1.3979,1.3977,1.3953,0,0,0,0,0,1.3841,1.3854,1.3867,1.3882,1.3887,1.3898,1.3905,1.391,1.3922,1.3927,1.3936,1.3948,1.3962,1.397,1.3983,1.4001,1.4005,1.4009,1.401,1.4011,1.4013,1.4024,1.4026,1.4003,1.4003,1.4003,0,0,1.3845,1.3856,1.3863,1.3882,1.3891,1.3904,1.3902,1.3915,1.3925,1.3929,1.3946,1.3953,1.3967,1.3985,1.3994,1.3992,1.402,1.4013,1.4013,1.4014,1.4025,1.4027,1.4029,1.4004,1.4004,1.4004,0,0,1.3858,1.3867,1.3881,1.389,1.3904,1.391,1.3914,1.3928,1.3933,1.395,1.3954,1.3965,1.3988,1.3998,1.4006,1.4023,1.4025,1.4027,1.4033,1.4043,1.4045,1.4047,1.4053,1.4056,1.4028,1.4028,1.4028,0,1.3861,1.3881,1.3887,1.3901,1.3909,1.3913,1.3927,1.3935,1.3953,1.3959,1.3956,1.3985,1.3994,1.4015,1.4019,1.4025,1.4029,1.4025,1.4044,1.4046,1.4048,1.4054,1.4056,1.4028,1.4028,1.4028,1.4028,0,1.3884,1.3897,1.3906,1.3923,1.3932,1.3946,1.3955,1.3963,1.3967,1.3974,1.3992,1.4003,1.4018,1.4024,1.4027,1.4045,1.4043,1.4042,1.4039,1.405,1.4056,1.4058,1.4029,1.4029,1.4028,1.4028,0,0,1.3897,1.3917,1.3921,1.3928,1.3944,1.3954,1.3968,1.3983,1.3991,1.4002,1.4015,1.4034,1.4033,1.4042,1.4047,1.4056,1.4069,1.4054,1.4054,1.4057,1.409,1.4091,1.4094,1.407,1.4071,1.4071,1.4089,0,1.3913,1.3938,1.3944,1.3965,1.3978,1.3981,1.3993,1.4004,1.4011,1.4023,1.4031,1.4044,1.4042,1.4048,1.4057,1.4066,1.4076,1.4064,1.4082,1.4083,1.4079,1.4097,1.4098,1.4114,1.4091,1.4092,1.4092,0,1.3935,1.3947,1.3969,1.3983,1.3989,1.3999,1.4014,1.4025,1.4038,1.4042,1.4052,1.4056,1.4071,1.4065,1.4086,1.4078,1.4086,1.4091,1.4092,1.4095,1.4089,1.41,1.412,1.4122,1.4096,1.4096,1.4095,0,1.3943,1.3965,1.3981,1.3988,1.4004,1.4012,1.4019,1.4031,1.404,1.4053,1.4059,1.4073,1.4081,1.4092,1.4099,1.4095,1.412,1.4115,1.4124,1.4124,1.413,1.4129,1.4151,1.4134,1.4133,1.4133,1.4133,0,1.396,1.3974,1.3985,1.3996,1.4011,1.4018,1.4033,1.4041,1.4052,1.4064,1.4067,1.4078,1.4087,1.41,1.4106,1.4123,1.4126,1.413,1.4132,1.413,1.413,1.4136,1.4135,1.4134,1.4134,1.4134,1.4134,0,1.3973,1.3981,1.3999,1.4013,1.4017,1.4028,1.404,1.405,1.4057,1.4072,1.4076,1.4087,1.4102,1.411,1.4129,1.4133,1.4152,1.4152,1.4148,1.4148,1.4157,1.4157,1.4184,1.4189,1.4168,1.4168,1.4168,0,1.3984,1.3994,1.401,1.4018,1.4025,1.4038,1.4047,1.4054,1.4063,1.4079,1.4087,1.4102,1.4114,1.4138,1.4148,1.4162,1.4164,1.4172,1.4166,1.4164,1.4164,1.4164,1.4165,1.4174,1.4174,1.4174,1.4174,0,1.4003,1.4006,1.4018,1.4032,1.4043,1.4054,1.4065,1.4072,1.4081,1.4091,1.4106,1.4116,1.4135,1.415,1.4165,1.4173,1.4175,1.4176,1.4179,1.4178,1.4175,1.4177,1.4151,1.4175,1.4175,1.4175,1.4175,1.4175,1.4015,1.4025,1.4037,1.4051,1.406,1.4071,1.4081,1.4089,1.4101,1.4117,1.4121,1.4137,1.4149,1.417,1.4178,1.4191,1.419,1.4194,1.4195,1.4196,1.4197,1.4172,1.4194,1.4194,1.4194,1.4194,1.4194,0,1.4035,1.4043,1.4055,1.4071,1.4082,1.4082,1.4095,1.4104,1.4118,1.4129,1.4142,1.4159,1.4174,1.4184,1.4199,1.4208,1.4209,1.4211,1.4211,1.4213,1.4197,1.4193,1.421,1.421,1.421,1.421,1.421,1.421,1.4046,1.4063,1.4068,1.4089,1.4097,1.4113,1.412,1.4129,1.4139,1.4158,1.417,1.4177,1.4188,1.4204,1.4217,1.422,1.4226,1.4228,1.4231,1.4216,1.4214,1.4212,1.4209,1.4229,1.4229,1.4246,1.4246,1.4246]},{"header":{"parameterUnit":"m.s-1","parameterCategory":1,"la1":30.2991,"la2":30.254,"lo1":-89.0895,"lo2":-89.0444,"dy":0.0017,"dx":0.0017,"nx":28,"ny":28,"refTime":"2025-08-21T21:00:00:Z","depth":0,"parameterNumber":3,"parameterNumberName":"V-component_of_WINDS"},"data":[0,0,0,0,0,0,0,0,0,0,0,0,0,0,0,0,0,0,0,0,0,0,0,0,0,0,0,0,0,0,0,0,0,0,0,0,0,0,0,0,0,0,0,0,0,0,0,0,0,0,0,0,0,0,0,0,0,0,0.78,0.7799,0,0.7748,0.7747,0.7746,0.773,0.773,0.773,0.7731,0.7676,0.7674,0.7673,0,0,0,0,0,0,0,0,0,0,0,0,0,0.7883,0.7882,0.78,0.7799,0.7798,0.7748,0.7747,0.7746,0.773,0.773,0.7731,0.7731,0.7676,0.7674,0.7672,0,0,0,0,0,0,0,0,0,0,0,0,0,0.7841,0.7881,0.78,0.7784,0.7782,0.7748,0.7747,0.7746,0.773,0.773,0.7731,0.7731,0.7677,0.7675,0.7672,0.7649,0,0,0.7664,0.7663,0,0,0,0,0,0,0,0,0.7843,0.7837,0.7787,0.7785,0.7783,0.7746,0.7756,0.7714,0.773,0.775,0.7731,0.7731,0.7699,0.7694,0.7684,0.7647,0.7644,0.7664,0.7663,0.7662,0.7661,0,0,0,0,0,0,0,0.7846,0.784,0.7779,0.7786,0.7784,0.7779,0.7773,0.7748,0.7723,0.7748,0.7747,0.7741,0.7698,0.7686,0.7682,0.7643,0.7664,0.7662,0.766,0.7659,0.7584,0.7583,0,0,0,0,0,0,0.7852,0.7842,0.7781,0.7777,0.7815,0.7777,0.7771,0.7757,0.7723,0.7718,0.7741,0.774,0.769,0.7685,0.768,0.765,0.7662,0.7659,0.7658,0.7584,0.7584,0.7583,0,0,0,0,0,0,0.7854,0.7846,0.7783,0.7809,0.7801,0.7776,0.776,0.7756,0.7745,0.7717,0.7713,0.7734,0.7691,0.7684,0.7657,0.7648,0.7658,0.7656,0.7585,0.7584,0.7583,0.7591,0,0,0,0,0,0,0.7856,0.7847,0.7839,0.7809,0.78,0.7761,0.776,0.7755,0.7741,0.774,0.771,0.7705,0.769,0.7661,0.7654,0.7645,0.7654,0.7586,0.7585,0.7584,0.7591,0.759,0.759,0,0,0,0,0,0.7859,0.7843,0.7838,0.7831,0.7788,0.776,0.7755,0.7738,0.774,0.7731,0.7713,0.7706,0.7651,0.7658,0.7651,0.7641,0.7586,0.7585,0.7584,0.7592,0.7591,0.759,0,0,0,0,0,0,0.7871,0.7838,0.7833,0.7807,0.7786,0.7758,0.7745,0.7738,0.7716,0.7716,0.7697,0.769,0.7664,0.765,0.7659,0.7616,0.7618,0.7615,0.7626,0.7625,0.7625,0.7628,0.7652,0,0,0,0,0,0.787,0.7851,0.7823,0.7803,0.7793,0.7771,0.7758,0.7747,0.7725,0.7716,0.7697,0.7675,0.7653,0.7638,0.7616,0.7589,0.7582,0.7579,0.7578,0.7578,0.7575,0.7559,0.7557,0.758,0.758,0.758,0,0,0.7869,0.7849,0.7838,0.7805,0.7787,0.7767,0.7764,0.7742,0.7726,0.7713,0.7686,0.7671,0.7646,0.7618,0.7605,0.7605,0.7567,0.7576,0.7576,0.7574,0.7558,0.7555,0.7554,0.7579,0.7579,0.7579,0,0,0.7856,0.7839,0.782,0.7803,0.7777,0.7763,0.7758,0.7731,0.772,0.7693,0.7682,0.7663,0.7625,0.7607,0.7593,0.7574,0.7566,0.7567,0.7563,0.7547,0.7545,0.7544,0.7536,0.7533,0.7565,0.7565,0.7565,0,0.7858,0.7827,0.7811,0.779,0.7775,0.7763,0.7742,0.7726,0.7695,0.7685,0.7685,0.7637,0.7619,0.7587,0.7583,0.7572,0.7565,0.757,0.7547,0.7545,0.7543,0.7535,0.7533,0.7565,0.7565,0.7565,0.7565,0,0.7829,0.7808,0.7795,0.7765,0.7749,0.7729,0.7709,0.7695,0.7686,0.7671,0.7643,0.7621,0.7594,0.7586,0.7577,0.7553,0.7553,0.7551,0.7552,0.7542,0.7534,0.7531,0.7565,0.7565,0.7565,0.7565,0,0,0.7821,0.7783,0.7779,0.7765,0.7736,0.7718,0.7697,0.7671,0.7659,0.7638,0.7619,0.7587,0.7584,0.7568,0.7557,0.7544,0.7528,0.7543,0.7542,0.754,0.7499,0.75,0.7497,0.7524,0.7523,0.7523,0.7501,0,0.7804,0.7765,0.7751,0.7719,0.7699,0.7687,0.7668,0.7648,0.7634,0.7614,0.7598,0.7576,0.7574,0.7565,0.7551,0.7533,0.752,0.7535,0.7505,0.7504,0.751,0.7493,0.7494,0.7475,0.7498,0.7497,0.7497,0,0.7778,0.7757,0.7723,0.7696,0.7687,0.7671,0.7645,0.7627,0.7604,0.7594,0.7577,0.7566,0.7543,0.7546,0.7513,0.7524,0.7511,0.75,0.7499,0.7495,0.7499,0.7487,0.7469,0.7465,0.7492,0.7493,0.7493,0,0.7774,0.7737,0.7712,0.7701,0.7669,0.7658,0.7644,0.7621,0.7606,0.7584,0.7574,0.755,0.7536,0.7517,0.75,0.7504,0.7468,0.747,0.7459,0.7459,0.745,0.7451,0.7428,0.7444,0.7444,0.7444,0.7444,0,0.7755,0.7735,0.771,0.7695,0.7672,0.7655,0.7632,0.7617,0.7597,0.7578,0.7566,0.7549,0.7528,0.7507,0.7494,0.7468,0.7462,0.7453,0.7449,0.7453,0.7454,0.7444,0.7444,0.7443,0.7444,0.7444,0.7444,0,0.7747,0.7729,0.7701,0.7674,0.7666,0.765,0.7626,0.7611,0.7596,0.7572,0.7566,0.7543,0.7518,0.7499,0.7467,0.7458,0.743,0.7427,0.7438,0.7436,0.7425,0.7425,0.7393,0.7388,0.7409,0.7408,0.7408,0,0.7735,0.772,0.769,0.7677,0.7663,0.7642,0.7627,0.761,0.7594,0.7567,0.7554,0.7529,0.7507,0.7468,0.7448,0.7423,0.7419,0.7409,0.7415,0.7419,0.7417,0.7418,0.7415,0.7408,0.7408,0.7408,0.7408,0,0.7717,0.7709,0.7688,0.7664,0.7646,0.7626,0.7606,0.7596,0.7575,0.7558,0.7533,0.7516,0.7483,0.7458,0.7431,0.7416,0.7408,0.7406,0.7402,0.7405,0.7412,0.7407,0.7434,0.7407,0.7407,0.7407,0.7407,0.7407,0.7705,0.769,0.7668,0.7644,0.7628,0.7609,0.7593,0.7576,0.7555,0.7527,0.7518,0.7492,0.7469,0.7432,0.7417,0.7395,0.7395,0.7389,0.7388,0.7386,0.7386,0.7416,0.7391,0.7391,0.7391,0.7391,0.7391,0,0.7685,0.767,0.7649,0.7621,0.7603,0.7598,0.7575,0.756,0.7537,0.7516,0.7495,0.7466,0.7441,0.7419,0.7393,0.738,0.7376,0.7374,0.7374,0.7371,0.7388,0.7394,0.7378,0.7378,0.7378,0.7378,0.7378,0.7378,0.7672,0.7646,0.7636,0.7601,0.7586,0.7561,0.7548,0.753,0.7514,0.7482,0.7461,0.7447,0.7426,0.7398,0.7375,0.7369,0.736,0.7359,0.7352,0.7368,0.737,0.7371,0.7376,0.7357,0.7357,0.7336,0.7336,0.7336]}]]